Regional Weather Roundup
Issued by NWS

Home | Current Version | Previous Version | Graphics & Text | Print | Product List | Glossary On
Versions: 1 2 3 4 5 6 7 8 9 10 11 12 13 14 15 16 17 18 19 20 21 22 23 24 25 26 27 28 29 30 31 32 33 34 35 36 37 38 39 40 41 42 43 44 45 46 47 48 49 50
000
ASUS43 KLOT 250203
RWRIL

ILLINOIS REGIONAL WEATHER ROUNDUP
NATIONAL WEATHER SERVICE CHICAGO/ROMEOVILLE IL
900 PM CDT SAT JUN 24 2017

NOTE: "FAIR" INDICATES FEW OR NO CLOUDS BELOW 12,000 FEET WITH NO
SIGNIFICANT WEATHER AND/OR OBSTRUCTIONS TO VISIBILITY.

* THESE STATIONS ARE NOT UNDER NWS QUALITY CONTROL. THEY ALSO MAY NOT
  REPORT WEATHER SUCH AS PRECIPITATION OR FOG.

ILZ001-002-007-009-015-016-024-250300-
NORTHWEST ILLINOIS

CITY           SKY/WX    TMP DP  RH WIND       PRES   REMARKS
MOLINE         RAIN      66  49  54 W16G22    30.04S
STERLING*      LGT RAIN  63  51  65 N6        30.05R
SAVANNA*       CLOUDY    57  54  88 CALM      30.06R
$$

ILZ003-004-008-010-011-017-018-250300-
NORTH CENTRAL ILLINOIS

CITY           SKY/WX    TMP DP  RH WIND       PRES   REMARKS
ROCKFORD       CLOUDY    58  52  80 N7        30.06S
FREEPORT*      LGT RAIN  55  53  94 S3        30.07R
ROCHELLE*      MOCLDY    58  51  77 N3        30.06S
DE KALB*       PTCLDY    60  49  67 N6        30.06S
PERU*          CLEAR     65  44  47 SW7       30.06R
$$

ILZ005-006-012>014-019>023-250300-
NORTHEAST ILLINOIS

CITY           SKY/WX    TMP DP  RH WIND       PRES   REMARKS
CHICAGO-OHARE  MOCLDY    68  43  40 NW8       30.03R
CHICAGO-MIDWAY PTCLDY    68  42  38 W7        30.04R
AURORA         PTCLDY    62  47  57 NW14G21   30.06R
LANSING*       CLEAR     66  40  39 W6        30.05R
JOLIET*        CLEAR     68  45  44 CALM      30.06R
WAUKEGAN       CLOUDY    62  48  60 VRB7G20   30.03R
DUPAGE AIRPORT MOCLDY    64  47  53 NW17G24   30.05R
WHEELING       MOCLDY    65  46  50 NW18G29   30.06R
MORRIS*        CLEAR     64  46  51 W3        30.04S
ROMEOVILLE*    PTCLDY    65  41  42 W6        30.05R
NORTHERLY ISL    N/A     69  39  33 W8          N/A
$$

LMZ740>746-250300-
SOUTHERN LAKE MICHIGAN

STATION/POSITION SKY/WX   TEMP    WIND        PRES    VSBY  WAVE
                          AIR SEA DIR/SP/G                  HT/PER
                          (F)     (DEG/KT/KT) (MB)    (MI)  (FT/S)
SOUTHERN BUOY              64 63  300/  8/  8 1015.6          1/ 4
WILMETTE HARBOR            67 65  280/ 10/ 12   N/A           2/ 3
HARRISON CRIB              70     310/ 13/ 15   N/A
BURNHAM HARBOR             69                   N/A
CALUMET HARBOR             69     280/  5/ 14 1016.5R
BURNS HARBOR               68     310/ 13/ 15 1017.3R
MICHIGAN CITY              68     290/ 19/ 21   N/A
MICHIGAN CITY 6N           68 67  300/ 14/ 16   N/A           4/ 4
ST. JOSEPH                 68 69  320/ 16/ 21 1016.7R         3/ 3
$$

ILZ025>027-034>036-040-047-049-050-058-095>099-250300-
WEST-CENTRAL ILLINOIS

CITY           SKY/WX    TMP DP  RH WIND       PRES   REMARKS
QUINCY         CLEAR     65  52  62 SW5       30.12R
GALESBURG*     CLEAR     63  48  56 SW6       30.07F
MACOMB*        CLEAR     60  50  69 SW6       30.11R
JACKSONVILLE*  CLEAR     63  47  56 SW5       30.12S
PITTSFIELD*    CLEAR     65  51  61 SW3       30.14R
$$

ILZ028>032-037-038-041>044-048-051>054-059>061-250300-
CENTRAL ILLINOIS

CITY           SKY/WX    TMP DP  RH WIND       PRES   REMARKS
PONTIAC        CLEAR     64  50  61 SW5       30.08S
BLOOMINGTON    CLEAR     66  44  45 W5        30.11R
DECATUR        CLEAR     67  42  40 NW5       30.12R
PEORIA         CLEAR     64  46  52 SW6       30.08S
LACON*         CLEAR     60  50  69 S3        30.05F
LINCOLN*       CLEAR     66  44  45 CALM      30.10S
SPRINGFIELD    CLEAR     64  50  60 CALM      30.12R
TAYLORVILLE    CLEAR     62  47  56 CALM      30.13R
$$

ILZ033-039-045-046-055>057-062-063-250300-
EAST-CENTRAL ILLINOIS

CITY           SKY/WX    TMP DP  RH WIND       PRES   REMARKS
CHAMPAIGN      CLEAR     63  45  51 W6        30.11R
RANTOUL*       PTCLDY    64  48  56 W5        30.11R
MATTOON        CLEAR     63  49  60 W5        30.11R
PARIS*         CLEAR     63  51  64 CALM      30.12R
$$

ILZ079-100>102-250300-
SOUTHWEST ILLINOIS

CITY           SKY/WX    TMP DP  RH WIND       PRES   REMARKS
ALTON          CLEAR     63  52  67 NW6       30.16R
CAHOKIA*       CLEAR     72  41  32 N9        30.16R
SPARTA*        PTCLDY    70  48  44 NW6       30.16R
$$

ILZ064>066-069>071-074>076-080>082-084>086-088>090-092>094-250300-
SOUTH-CENTRAL ILLINOIS

CITY           SKY/WX    TMP DP  RH WIND       PRES   REMARKS
CARBONDALE     CLEAR     67  60  78 CALM      30.15R
CAIRO*         PTCLDY    67  64  87 CALM      30.15R
EFFINGHAM*     CLEAR     65  51  62 W3        30.14R
MARION         CLOUDY    64  59  82 CALM      30.15R
MT. VERNON     CLEAR     61  56  83 CALM      30.15R
CENTRALIA*     CLEAR     67  53  59 NW5       30.14R
SALEM*         CLEAR     66  52  59 NW5       30.14R
METROPOLIS*    PTCLDY    66  61  85 CALM      30.15R
$$

ILZ067-068-072-073-078-083-087-091-250300-
SOUTHEAST ILLINOIS

CITY           SKY/WX    TMP DP  RH WIND       PRES   REMARKS
LAWRENCEVILLE  PTCLDY    69  54  58 W3        30.12R
FLORA*         CLEAR     70  50  50 W5        30.13R
FAIRFIELD*     MOCLDY    65  55  68 CALM      30.13R
HARRISBURG*    CLOUDY    69  52  54 N3        30.14R
ROBINSON*      PTCLDY    62  57  86 W5        30.12R
CARMI*         CLOUDY    67  57  71 NW5       30.13R
$$

ABBREVIATIONS USED IN REMARKS
   TC - TEMPERATURE IN CELSIUS
  WCI - WIND CHILL INDEX
   HX - HEAT INDEX
  VSB - VISIBILITY
$$




USA.gov is the U.S. government's official web portal to all federal, state and local government web resources and services.